Regional Weather Roundup
Issued by NWS Little Rock, AR

Home | Current Version | Previous Version | Graphics & Text | Print | Product List | Glossary On
Versions: 1 2 3 4 5 6 7 8 9 10 11 12 13 14 15 16 17 18 19 20 21 22 23 24 25 26 27 28 29 30 31 32 33 34 35 36 37 38 39 40 41 42 43 44 45 46 47 48 49 50
000
ASUS44 KLZK 282105
RWRLZK

WEATHER ROUNDUP FOR ARKANSAS
NATIONAL WEATHER SERVICE LITTLE ROCK AR
400 PM CDT MON JUL 28 2014

NOTE: "FAIR" INDICATES FEW OR NO CLOUDS BELOW 12,000 FEET WITH NO
SIGNIFICANT WEATHER AND/OR OBSTRUCTIONS TO VISIBILITY.

ARZ001-003-010-029-282200-
NORTHWEST ARKANSAS

CITY           SKY/WX    TMP DP  RH WIND       PRES   REMARKS
FAYETTEVILLE   SUNNY     84  57  39 NW15G23   30.16F
FORT SMITH     PTSUNNY   88  57  34 NW14      30.11F HX  87
HARRISON       SUNNY     84  58  40 NW8       30.14F
BENTONVILLE    SUNNY     82  55  39 N5G16     30.18S
ROGERS         SUNNY     83  55  38 N5        30.17F
SILOAM SPGS    SUNNY     81  57  44 N14       30.18F
HIGHFILL       SUNNY     85  58  39 NW10G17   30.17F
SPRINGDALE     MOSUNNY   84  57  39 N7G18     30.18F
$$

ARZ004-005-016-282200-
NORTH CENTRAL ARKANSAS

CITY           SKY/WX    TMP DP  RH WIND       PRES   REMARKS
BATESVILLE     MOSUNNY   84  63  48 W8        30.07F HX  85
FLIPPIN        SUNNY     86  57  37 N8        30.11S HX  85
MTN HOME       MOSUNNY   83  59  44 VRB3      30.10F
$$

ARZ040-041-282200-
WEST CENTRAL ARKANSAS

CITY           SKY/WX    TMP DP  RH WIND       PRES   REMARKS
MENA           PTSUNNY   86  64  48 CALM      30.13F HX  87
MOUNT IDA      SUNNY     86  64  47 NW6       30.09S HX  87
$$

ARZ009-017-025-026-028-282200-
NORTHEAST ARKANSAS

CITY           SKY/WX    TMP DP  RH WIND       PRES   REMARKS
CORNING        FAIR      84  61  45 NW7       30.06F
JONESBORO      MOSUNNY   83  63  50 N9        30.05F
NEWPORT        SUNNY     87  63  44 N10       30.06F HX  88
WALNUT RIDGE   MOSUNNY   84  61  45 N10       30.05F
BLYTHEVILLE    PTSUNNY   83  67  58 N9        30.05F HX  85
NW BLYTHEVILLE PTSUNNY   84  63  48 N7        30.05F HX  85
$$

ARZ022-023-033-042-044-282200-
CENTRAL ARKANSAS

CITY           SKY/WX    TMP DP  RH WIND       PRES   REMARKS
LITTLE ROCK    MOSUNNY   88  59  37 N12       30.07F HX  87
N LITTLE ROCK  MOSUNNY   85  65  49 NW9       30.07F HX  87
JACKSONVILLE   SUNNY     86  65  48 N8        30.07F HX  88
SEARCY         SUNNY     84  64  50 N8        30.07F HX  85
HOT SPRINGS    SUNNY     87  60  40 N8        30.09F HX  87
RUSSELLVILLE   SUNNY     87  62  43 W6        30.08F HX  87
CLINTON        FAIR      86  63  45 NW7       30.09F HX  87
$$

ARZ036-282200-
EAST ARKANSAS

CITY           SKY/WX    TMP DP  RH WIND       PRES   REMARKS
WEST MEMPHIS   MOSUNNY   85  64  49 N13       30.03F HX  86
$$

ARZ050-053-066-070-073-282200-
SOUTHWEST ARKANSAS

CITY           SKY/WX    TMP DP  RH WIND       PRES   REMARKS
ARKADELPHIA    FAIR      89  66  46 VRB5      30.07F HX  91
CAMDEN         SUNNY     90  66  45 NW9       30.06S HX  92
TEXARKANA      PTSUNNY   88  66  48 N5        30.08F HX  90
EL DORADO      SUNNY     89  66  46 NW9       30.06F HX  91
DE QUEEN       CLOUDY    89  64  43 N7        30.07F HX  90
$$

ARZ056-057-069-282200-
SOUTHEAST ARKANSAS

CITY           SKY/WX    TMP DP  RH WIND       PRES   REMARKS
PINE BLUFF     SUNNY     86  63  45 NW13G20   30.07S HX  87
STUTTGART      SUNNY     86  64  48 N10G16    30.07S HX  87
MONTICELLO     SUNNY     88  63  43 VRB5      30.05F HX  89

$$




USA.gov is the U.S. government's official web portal to all federal, state and local government web resources and services.